Location: Newark
(39.9581°N, 97.2014°W)
Time: 22:08:49
(UTC+00:00)

Envisat - Pass Details

Date: 23 January 2020
Orbit: 764 x 766 km, 98.1° (Epoch: 19 February)

Event Time Altitude Azimuth Distance (km) Brightness Sun altitude
Rises 00:18:11 0° 166° (SSE) 3,218 6.3 -8.4°
Reaches altitude 10° 00:20:29 10° 166° (SSE) 2,296 5.5 -8.8°
Maximum altitude 00:25:33 89° 256° (WSW) 772 3.0 -9.7°
Drops below altitude 10° 00:30:40 10° 347° (NNW) 2,311 5.5 -10.7°
Sets 00:32:59 0° 348° (NNW) 3,241 6.2 -11.1°
